Location: Biltmore Gardens
(41.6070°N, 83.4666°W)
Time: 08:53:23
(UTC+00:00)

Vanguard 3 - Pass Details

Date: 26 April 2021
Orbit: 507 x 3262 km, 33.4° (Epoch: 17 May)

Event Time Altitude Azimuth Distance (km) Brightness Sun altitude
Exits shadow 09:23:59 14° 196° (SSW) 1,530 8.1 -13.2°
Drops below altitude 10° 09:25:31 10° 171° (S) 1,712 8.6 -12.9°
Sets 09:28:32 0° 143° (SE) 2,616 9.9 -12.4°
